Regional Weather Roundup
Issued by NWS

Home | Current Version | Previous Version | Graphics & Text | Print | Product List | Glossary On
Versions: 1 2 3 4 5 6 7 8 9 10 11 12 13 14 15 16 17 18 19 20 21 22 23 24 25 26 27 28 29 30 31 32 33 34 35 36 37 38 39 40 41 42 43 44 45 46 47 48 49 50
349
ASUS45 KCYS 241410
RWRWY

WYOMING REGIONAL WEATHER ROUNDUP
NATIONAL WEATHER SERVICE CHEYENNE WY
700 AM MST TUE JAN 24 2017

NOTE:  "FAIR" INDICATES FEW OR NO CLOUDS BELOW 12,000 FEET
WITH NO SIGNIFICANT WEATHER AND/OR OBSTRUCTIONS TO VISIBILITY.

WYZ001-241500-
YELLOWSTONE NATIONAL PARK

CITY           SKY/WX    TMP DP  RH WIND       PRES   REMARKS
LK YELLOWSTONE   N/A     13   8  81 CALM      29.59R
W YELLOWSTONE  NOT AVBL

$$
WYZ002>013-054>058-071-098>099-241500-
NORTHERN WYOMING

CITY           SKY/WX    TMP DP  RH WIND       PRES   REMARKS
JACKSON        LGT SNOW  18  16  93 CALM      29.59R
CODY           LGT SNOW  19  14  81 N13       29.72R WCI   6
GREYBULL       CLOUDY    20  16  84 CALM      29.70R
WORLAND        LGT SNOW  21  20  96 W6        29.70R FOG     WCI  13
SHERIDAN       LGT SNOW  21  17  84 W9        29.79R FOG     WCI  11
BUFFALO        LGT SNOW  18  14  84 N20G30    29.71R FOG     WCI   2
GILLETTE       LGT SNOW  15  12  88 N14       29.73R FOG     WCI   0
HULETT         LGT SNOW  16  14  93 MISG      29.73R
NEWCASTLE      LGT SNOW  18  18 100 NW5       29.67R VSB 3/4 WCI  11

$$
WYZ014>020-022>026-101>103-241500-
CENTRAL WYOMING

CITY           SKY/WX    TMP DP  RH WIND       PRES   REMARKS
BIG PINEY      LGT SNOW  17  16  95 SW6       29.57R FOG     WCI   9
PINEDALE       LGT SNOW  18  16  93 W8        29.56R WCI   7
DUBOIS         NOT AVBL
LANDER         LGT SNOW  18  16  92 SE3       29.65R VSB 1
RIVERTON       LGT SNOW  18  17  96 SE5       29.66R FOG     WCI  11
CASPER         FLURRIES  15  11  83 NE15      29.65R WCI   0
DOUGLAS        CLOUDY    16  11  80 NW9       29.67R WCI   4

$$
WYZ021-027>030-104>119-241500-
SOUTHERN WYOMING

CITY           SKY/WX    TMP DP  RH WIND       PRES   REMARKS
EVANSTON       CLOUDY    16  12  84 SW20      29.60R WCI  -1
ROCK SPRINGS   LGT SNOW  19  16  88 W14       29.58R FOG     WCI   6
RAWLINS        FAIR      13   9  84 SW7       29.54S WCI   3
LARAMIE        FAIR      11   8  88 N9        29.50R WCI  -2
CHEYENNE       CLOUDY    22  21  96 N10       29.53R FOG     WCI  11
TORRINGTON     CLOUDY    21  16  81 N12       29.63R WCI   9

$$




USA.gov is the U.S. government's official web portal to all federal, state and local government web resources and services.